Location: Unspecified
(0.0000°N, 0.0000°E)
Time: 11:22:43
(UTC+02:00)

GPS 2-12 Rocket1 - Visible Passes

Search period start: 01 April 2015 00:00
Search period end: 11 April 2015 00:00
Orbit: 589 x 657 km, 20.0° (Epoch: 30 March)

Date Brightness Start Highest point End Pass type
(mag) Time Alt. Az. Time Alt. Az. Time Alt. Az.
01 Apr 4.8 20:47:44 10° NNW 20:50:58 19° NNE 20:53:41 12° ENE visible
01 Apr 5.9 22:30:15 10° WNW 22:30:46 13° WNW 22:30:46 13° WNW visible
02 Apr 5.7 07:14:56 10° S 07:15:26 10° SSE 07:16:01 10° SSE visible
02 Apr 4.1 21:04:20 10° NW 21:08:23 31° NNE 21:10:03 24° ENE visible
03 Apr 5.4 07:30:17 10° SSW 07:32:58 15° SSE 07:35:45 10° SE visible
03 Apr 3.2 21:21:14 10° WNW 21:25:42 55° NNE 21:26:25 49° ENE visible
04 Apr 3.0 21:38:24 10° WNW 21:42:48 78° WSW 21:42:48 78° WSW visible
05 Apr 5.3 06:23:13 13° S 06:23:53 14° SSE 06:26:17 10° SE visible
05 Apr 4.3 21:55:53 10° W 21:59:10 37° WSW 21:59:10 37° WSW visible
06 Apr 4.9 06:39:34 17° SSW 06:41:20 21° SSE 06:44:53 10° ESE visible
06 Apr 3.1 20:29:16 10° WNW 20:33:57 89° SSW 20:38:27 10° ESE visible
06 Apr 5.4 22:13:44 10° WSW 22:15:32 19° WSW 22:15:32 19° WSW visible
07 Apr 4.2 06:55:56 18° SW 06:58:41 34° SSE 07:02:55 10° E visible
07 Apr 3.7 20:46:41 10° W 20:51:12 49° SSW 20:54:48 15° SE visible
08 Apr 6.0 05:35:12 11° ESE 05:35:12 11° ESE 05:35:32 10° ESE visible
08 Apr 3.4 07:12:17 15° WSW 07:15:57 61° SSE 07:20:31 10° ENE visible
08 Apr 4.5 21:04:25 10° W 21:08:30 29° SSW 21:11:07 17° SSE visible
09 Apr 5.2 05:51:33 22° ESE 05:51:33 22° ESE 05:53:39 10° E visible
09 Apr 3.1 07:28:40 10° WSW 07:33:12 74° NNW 07:37:49 10° ENE visible
09 Apr 5.0 21:22:36 10° WSW 21:25:51 18° SSW 21:27:25 16° S visible
10 Apr 4.0 06:07:53 44° ESE 06:07:53 44° ESE 06:11:20 10° E visible
10 Apr 5.5 21:41:27 10° SW 21:43:18 12° SSW 21:43:40 12° S visible
